N0QV Weather Reports


time (UTC)temp
F
wind
direction
speed
knots
gust
knots
rain 1hr
in
rain 24hr
in
rain mn
in
humidity
%
barometer
mb
20260504110503 55 245 0.9 1.7 0.00 0.00 0.00 53 998.1
20260504100424 52 204 0.0 0.0 0.00 0.00 0.00 54 998.7
20260504081818 54 263 0.0 0.0 0.00 0.00 0.00 52 1000.4
20260504081314 54 272 0.0 0.9 0.00 0.00 0.00 50 1000.5
20260504080810 54 269 0.0 0.9 0.00 0.00 0.00 51 1000.6
20260504080308 54 200 0.0 0.9 0.00 0.00 0.00 50 1000.7
20260504070235 53 273 0.9 1.7 0.00 0.00 0.00 50 1001.9
20260504060155 50 284 0.0 0.0 0.00 0.00 0.00 51 1002.6
20260504050623 52 284 0.0 0.0 0.00 0.00 0.00 50 1003.3
20260504050121 51 284 0.9 0.9 0.00 0.00 0.00 51 1003.4
20260504045618 52 283 0.0 0.0 0.00 0.00 0.00 53 1003.6
20260504045112 51 284 0.9 0.9 0.00 0.00 0.00 52 1003.6
20260504044610 51 285 0.0 0.9 0.00 0.00 0.00 53 1003.6
20260504044107 51 281 0.0 0.0 0.00 0.00 0.00 56 1004.0
20260504043604 51 282 0.0 0.0 0.00 0.00 0.00 54 1003.7
20260504043101 51 282 0.0 0.0 0.00 0.00 0.00 57 1003.8
20260504042558 51 281 0.0 0.0 0.00 0.00 0.00 55 1004.0
20260504042055 51 281 0.0 0.0 0.00 0.00 0.00 57 1003.9
20260504041551 51 281 0.0 0.0 0.00 0.00 0.00 57 1004.1
20260504041047 51 281 0.0 0.0 0.00 0.00 0.00 59 1004.1
20260504040545 51 281 0.0 0.0 0.00 0.00 0.00 57 1004.4
20260504040041 50 281 0.0 0.0 0.00 0.00 0.00 60 1004.3
20260504035538 51 281 0.0 0.0 0.00 0.00 0.00 56 1004.4
20260504035034 50 281 0.0 0.0 0.00 0.00 0.00 61 1004.5
20260504034533 50 281 0.0 0.0 0.00 0.00 0.00 61 1004.4
20260504034029 50 281 0.0 0.0 0.00 0.00 0.00 54 1004.6
20260504033528 50 281 0.0 0.0 0.00 0.00 0.00 56 1004.9
20260504033024 51 281 0.0 0.0 0.00 0.00 0.00 59 1004.7
20260504032521 51 281 0.0 0.0 0.00 0.00 0.00 59 1005.0
20260504032018 51 281 0.0 0.0 0.00 0.00 0.00 56 1004.9
20260504031515 51 281 0.0 0.0 0.00 0.00 0.00 55 1005.0
20260504031011 51 281 0.0 0.0 0.00 0.00 0.00 53 1005.2
20260504030509 52 281 0.0 0.0 0.00 0.00 0.00 51 1005.2
20260504030004 53 281 0.0 0.0 0.00 0.00 0.00 51 1005.1
20260504025501 53 281 0.0 0.0 0.00 0.00 0.00 49 1005.2
20260504024958 54 281 0.0 0.0 0.00 0.00 0.00 46 1005.3
20260504024455 54 281 0.0 0.0 0.00 0.00 0.00 51 1005.3
20260504023952 53 281 0.0 0.0 0.00 0.00 0.00 52 1005.3
20260504023449 53 281 0.0 0.0 0.00 0.00 0.00 49 1005.1
20260504022944 54 281 0.0 0.0 0.00 0.00 0.00 51 1005.1
20260504022441 55 281 0.0 0.0 0.00 0.00 0.00 53 1005.3
20260504021937 56 281 0.0 0.0 0.00 0.00 0.00 51 1005.3
20260504021435 56 281 0.0 0.0 0.00 0.00 0.00 53 1005.2
20260504020932 57 281 0.0 0.0 0.00 0.00 0.00 50 1005.5
20260504020428 58 281 0.0 0.0 0.00 0.00 0.00 52 1005.3
20260504015925 59 281 0.0 0.0 0.00 0.00 0.00 39 1005.3
20260504015421 60 281 0.0 0.0 0.00 0.00 0.00 38 1005.5
20260504014917 61 281 0.0 0.0 0.00 0.00 0.00 37 1005.2
20260504014413 61 281 0.0 0.0 0.00 0.00 0.00 36 1005.2
20260504013910 61 281 0.0 0.0 0.00 0.00 0.00 35 1005.3
20260504013409 61 281 0.0 0.0 0.00 0.00 0.00 34 1005.3
20260504012905 61 281 0.0 0.0 0.00 0.00 0.00 34 1005.3
20260504012403 62 281 0.0 0.0 0.00 0.00 0.00 33 1005.4
20260504011900 63 281 0.0 0.0 0.00 0.00 0.00 32 1005.2
20260504011357 64 281 0.0 0.0 0.00 0.00 0.00 31 1005.3
20260504010852 65 281 0.0 0.0 0.00 0.00 0.00 31 1005.3
20260504010348 67 281 0.0 0.0 0.00 0.00 0.00 30 1005.5
20260504005845 68 281 0.0 0.9 0.00 0.00 0.00 28 1005.5
20260504005342 68 273 0.9 1.7 0.00 0.00 0.00 27 1005.4
20260504004839 69 283 2.6 2.6 0.00 0.00 0.00 26 1005.3
20260504004337 69 270 0.9 2.6 0.00 0.00 0.00 27 1005.4
20260504003833 69 301 0.9 1.7 0.00 0.00 0.00 26 1005.6
20260504003330 71 286 0.9 1.7 0.00 0.00 0.00 25 1005.7
20260504002827 71 267 0.9 2.6 0.00 0.00 0.00 26 1005.5
20260504002323 71 258 1.7 2.6 0.00 0.00 0.00 24 1005.8
20260504001821 71 268 1.7 4.3 0.00 0.00 0.00 25 1006.0
20260504001318 71 281 0.9 2.6 0.00 0.00 0.00 26 1006.0
20260504000815 71 263 2.6 6.1 0.00 0.00 0.00 25 1006.0
20260504000312 71 248 0.9 6.1 0.00 0.00 0.00 26 1005.9
20260503235810 71 272 1.7 4.3 0.00 0.00 0.00 26 1006.0
20260503235307 71 287 2.6 6.1 0.00 0.00 0.00 25 1006.0
20260503234805 71 280 2.6 5.2 0.00 0.00 0.00 26 1006.0
20260503234303 72 320 2.6 4.3 0.00 0.00 0.00 25 1006.1
20260503233800 72 260 2.6 7.0 0.00 0.00 0.00 26 1006.1
20260503233255 73 249 3.5 5.2 0.00 0.00 0.00 25 1006.0
20260503232753 72 285 2.6 2.6 0.00 0.00 0.00 25 1006.1
20260503232250 73 255 2.6 6.1 0.00 0.00 0.00 25 1005.9
20260503231748 73 269 6.1 7.0 0.00 0.00 0.00 25 1006.1
20260503231245 73 264 4.3 6.1 0.00 0.00 0.00 24 1006.4
20260503230740 72 283 4.3 7.8 0.00 0.00 0.00 25 1006.3
20260503230238 72 294 1.7 6.1 0.00 0.00 0.00 26 1006.1
20260503225736 73 267 3.5 6.1 0.00 0.00 0.00 25 1006.4
20260503225235 73 259 2.6 7.0 0.00 0.00 0.00 26 1006.4
20260503224732 73 272 2.6 4.3 0.00 0.00 0.00 26 1006.3
20260503224230 73 267 5.2 9.6 0.00 0.00 0.00 25 1006.3
20260503223727 73 283 6.1 7.8 0.00 0.00 0.00 25 1006.5
20260503223225 73 338 4.3 7.0 0.00 0.00 0.00 26 1006.1
20260503222721 73 314 2.6 11.3 0.00 0.00 0.00 27 1006.0
20260503222219 73 259 2.6 6.1 0.00 0.00 0.00 27 1006.3
20260503221717 73 201 4.3 7.8 0.00 0.00 0.00 27 1006.0
20260503221215 73 285 4.3 7.8 0.00 0.00 0.00 26 1006.3
20260503220711 73 254 3.5 6.1 0.00 0.00 0.00 28 1006.4
20260503220208 74 303 4.3 6.1 0.00 0.00 0.00 26 1006.4
20260503215705 73 245 4.3 6.1 0.00 0.00 0.00 26 1006.1
20260503215201 74 254 3.5 6.1 0.00 0.00 0.00 27 1006.4
20260503214700 73 240 3.5 5.2 0.00 0.00 0.00 26 1006.1
20260503214155 73 273 3.5 7.8 0.00 0.00 0.00 27 1006.5
20260503213655 74 276 0.9 6.1 0.00 0.00 0.00 27 1006.5
20260503213151 74 295 2.6 7.0 0.00 0.00 0.00 29 1006.4
20260503212649 73 254 4.3 5.2 0.00 0.00 0.00 27 1006.3
20260503212146 73 242 4.3 7.0 0.00 0.00 0.00 26 1006.5
20260503211644 74 226 4.3 6.1 0.00 0.00 0.00 26 1006.7
20260503211139 73 278 2.6 5.2 0.00 0.00 0.00 27 1006.8
20260503210635 73 282 3.5 6.1 0.00 0.00 0.00 26 1006.7
20260503210132 73 282 4.3 7.8 0.00 0.00 0.00 27 1006.7
20260503205628 73 253 2.6 7.0 0.00 0.00 0.00 28 1006.8
20260503205124 73 258 4.3 5.2 0.00 0.00 0.00 28 1006.9
20260503204621 72 244 3.5 9.6 0.00 0.00 0.00 29 1006.9
20260503204119 72 263 5.2 11.3 0.00 0.00 0.00 28 1007.0
20260503203616 72 253 5.2 7.8 0.00 0.00 0.00 28 1006.8
20260503203113 72 52 4.3 9.6 0.00 0.00 0.00 28 1007.0
20260503202610 73 278 1.7 2.6 0.00 0.00 0.00 29 1007.2
20260503202109 73 249 4.3 9.6 0.00 0.00 0.00 27 1007.4
20260503201606 73 284 6.1 7.8 0.00 0.00 0.00 27 1007.2
20260503201103 73 265 3.5 7.0 0.00 0.00 0.00 30 1007.3
20260503200559 72 308 4.3 7.0 0.00 0.00 0.00 28 1007.4
20260503200056 74 275 3.5 5.2 0.00 0.00 0.00 28 1007.4
20260503195553 72 245 4.3 11.3 0.00 0.00 0.00 30 1007.4
20260503195050 72 321 4.3 7.8 0.00 0.00 0.00 29 1007.4
20260503194547 72 260 3.5 8.7 0.00 0.00 0.00 29 1007.6
20260503194047 72 242 5.2 7.0 0.00 0.00 0.00 29 1007.6
20260503193544 73 304 4.3 7.8 0.00 0.00 0.00 31 1007.3
20260503193044 72 250 2.6 7.8 0.00 0.00 0.00 29 1007.4
20260503192541 72 245 3.5 6.1 0.00 0.00 0.00 31 1007.5
20260503192037 72 262 6.1 9.6 0.00 0.00 0.00 28 1007.6
20260503191534 71 275 3.5 7.0 0.00 0.00 0.00 30 1007.8
20260503191031 71 334 5.2 7.0 0.00 0.00 0.00 28 1007.8
20260503190527 72 247 4.3 7.0 0.00 0.00 0.00 28 1007.9
20260503190025 72 294 4.3 7.0 0.00 0.00 0.00 27 1007.9
20260503185521 72 272 4.3 14.8 0.00 0.00 0.00 27 1007.6
20260503185021 71 232 3.5 4.3 0.00 0.00 0.00 28 1007.7
20260503184517 71 256 7.0 8.7 0.00 0.00 0.00 27 1008.1
20260503184014 71 278 5.2 7.8 0.00 0.00 0.00 28 1007.9
20260503183510 71 285 7.8 9.6 0.00 0.00 0.00 27 1007.9
20260503183008 71 251 2.6 7.0 0.00 0.00 0.00 29 1008.1
20260503182507 71 257 3.5 9.6 0.00 0.00 0.00 29 1008.1
20260503182004 71 270 2.6 8.7 0.00 0.00 0.00 29 1008.1
20260503181500 71 55 3.5 7.8 0.00 0.00 0.00 28 1008.0
20260503180956 71 270 2.6 5.2 0.00 0.00 0.00 28 1008.3
20260503180454 71 299 6.1 7.8 0.00 0.00 0.00 27 1008.4
20260503175951 70 222 4.3 11.3 0.00 0.00 0.00 29 1008.3
20260503175449 70 317 2.6 7.8 0.00 0.00 0.00 30 1008.3
20260503174945 70 271 3.5 11.3 0.00 0.00 0.00 28 1008.4
20260503174443 70 310 6.1 9.6 0.00 0.00 0.00 29 1008.5
20260503173938 71 276 4.3 7.0 0.00 0.00 0.00 29 1008.6
20260503173434 70 295 2.6 7.8 0.00 0.00 0.00 32 1008.3
20260503172931 69 296 5.2 7.0 0.00 0.00 0.00 30 1008.5
20260503172428 70 315 2.6 6.1 0.00 0.00 0.00 31 1008.3
20260503171925 70 228 2.6 6.1 0.00 0.00 0.00 32 1008.3
20260503171422 70 295 5.2 11.3 0.00 0.00 0.00 32 1008.5
20260503170919 69 258 3.5 7.8 0.00 0.00 0.00 34 1008.6
20260503170415 70 232 4.3 8.7 0.00 0.00 0.00 32 1008.6
20260503150808 65 315 4.3 6.1 0.00 0.00 0.00 39 1008.2
20260503150303 64 251 2.6 7.8 0.00 0.00 0.00 42 1008.4
20260503140228 59 297 2.6 6.1 0.00 0.00 0.00 49 1007.9
20260503131157 55 264 4.3 8.7 0.00 0.00 0.00 54 1007.4
20260503130655 55 279 4.3 5.2 0.00 0.00 0.00 54 1007.3
20260503130152 54 299 7.0 9.6 0.00 0.00 0.00 55 1007.4
20260503120118 53 281 2.6 4.3 0.00 0.00 0.00 56 1006.3